Home > Weather > Enns > Past weeks

Flag for Austria Weather for the Past 2 Weeks in Enns, Upper Austria, Austria

Now
34 °F

Overcast.


Feels Like: N/A
Forecast: 31 / 48 °F
Wind: N/A

Location: Linz / Hoersching-Flughafen

Current Time: Feb 13, 2016 at 10:39:30 AM

Latest Report: Feb 13, 2016 at 10:00 AM


Visibility: 6 mi

Pressure: 29.44 "Hg

Humidity: 90%

Dew point: 31 °F

Location of EnnsLocation

Historic Weather in Enns — Graph

°F

Enns Temperature Yesterday

Maximum temperature yesterday: 40 °F (at 4:00 PM)
Minimum temperature yesterday: 26 °F (at 5:00 AM)
Average temperature yesterday: 32 °F

High & Low Weather Summary for the Past Weeks

 TemperatureHumidityPressure
High56 °F (Feb 1, 4:00 PM)100% (Jan 30, 12:00 AM)30.47 "Hg (Jan 30, 12:00 AM)
Low26 °F (Feb 12, 5:00 AM)49% (Feb 8, 2:00 PM)29.23 "Hg (Feb 9, 10:00 PM)
Average40 °F84%29.97 "Hg
* Reported Jan 29 9:00 AM — Feb 13 9:00 AM, Enns, Weather by CustomWeather, © 2016

Note: Actual official high and low records may vary slightly from our data, if they occured in-between our weather recording intervals... More about our weather records

Advertising

Enns Weather History for the Previous 24 Hours

 ConditionsComfort  
Time TempWeatherWind HumidityBarometerVisibility
9:00 AM
Sat, Feb 13
32 °FOvercast.N/A92%29.44 "Hg6 mi
8:00 AM31 °FOvercast.N/A92%29.44 "Hg6 mi
7:00 AM31 °FOvercast.N/A93%29.44 "Hg6 mi
6:00 AM31 °FOvercast.N/A93%29.44 "Hg7 mi
5:00 AM30 °FOvercast.N/A93%29.44 "Hg7 mi
2:00 AM30 °FOvercast.N/A92%29.44 "Hg8 mi
1:00 AM30 °FPassing clouds.N/A92%29.44 "Hg7 mi
10:00 PM
Fri, Feb 12
33 °FPassing clouds.5 mph84%29.44 "Hg19 mi
9:00 PM34 °FPassing clouds.3 mph81%29.44 "Hg25 mi
8:00 PM35 °FPassing clouds.5 mph80%29.47 "Hg25 mi
7:00 PM36 °FPassing clouds.5 mph81%29.47 "Hg17 mi
6:00 PM36 °FPassing clouds.3 mph79%29.50 "Hg22 mi
5:00 PM38 °FPassing clouds.5 mph71%29.54 "Hg22 mi
4:00 PM40 °FPassing clouds.5 mph65%29.57 "Hg28 mi
3:00 PM38 °FPassing clouds.N/A77%29.61 "Hg7 mi
2:00 PM34 °FPartly sunny.N/A93%29.65 "Hg3 mi
1:00 PM31 °FLow clouds.N/A98%29.69 "Hg1 mi
12:00 PM30 °FIce fog.N/A99%29.73 "Hg0 mi
11:00 AM30 °FIce fog.N/A99%29.75 "Hg0 mi
10:00 AM29 °FIce fog.N/A100%29.77 "Hg0 mi
Weather by CustomWeather, © 2016

See weather overviewHow to use our weather pages